Regional Weather Roundup
Issued by NWS Green Bay, WI

Home | Current Version | Previous Version | Graphics & Text | Print | Product List | Glossary Off
Versions: 1 2 3 4 5 6 7 8 9 10 11 12 13 14 15 16 17 18 19 20 21 22 23 24 25 26 27 28 29 30 31 32 33 34 35 36 37 38 39 40 41 42 43 44 45 46 47 48 49 50

000
ASUS43 KGRB 192359
RWRGRB

NORTH-CENTRAL AND NORTHEAST WISCONSIN REGIONAL WEATHER ROUNDUP
NATIONAL WEATHER SERVICE GREEN BAY WI
600 PM CST FRI DEC 19 2014

WIZ005-009-010>012-018-019-200100-
NORTH CENTRAL WISCONSIN

CITY           SKY/WX    TMP DP  RH WIND       PRES   REMARKS
IRONWOOD       CLOUDY    23  21  93 S3        30.19S
MANITOWISH WTR NOT AVBL
ARBOR VITAE    NOT AVBL
EAGLE RIVER    NOT AVBL
LAND O LAKES   NOT AVBL
RHINELANDER    CLOUDY    21  16  81 SW3       30.21S
PHILLIPS       NOT AVBL
ANTIGO         NOT AVBL
TOMAHAWK       NOT AVBL
MERRILL        NOT AVBL
$$

WIZ013-073-200100-
NORTHEAST WISCONSIN

CITY           SKY/WX    TMP DP  RH WIND       PRES   REMARKS
IRON MOUNTAIN  CLEAR     14  12  92 CALM      30.24R FOG
MARINETTE      CLEAR     23  19  86 CALM      30.29R
$$

WIZ017-030-035>037-045-200100-
CENTRAL WISCONSIN

CITY           SKY/WX    TMP DP  RH WIND       PRES   REMARKS
MEDFORD        NOT AVBL
WAUSAU         PTCLDY    22  18  85 SW5       30.24R
MOSINEE        CLOUDY    23  21  93 SW6       30.26S
MARSHFIELD     CLOUDY    24  19  81 S6        30.25S
WISC RAPIDS    CLOUDY    24  19  81 S6        30.29S
STEVENS POINT  NOT AVBL
WAUPACA        NOT AVBL
SHAWANO        NOT AVBL
CLINTONVILLE   NOT AVBL
$$

WIZ038-039-048-051-200100-
FOX VALLEY

CITY           SKY/WX    TMP DP  RH WIND       PRES   REMARKS
NWS GREEN BAY  PTCLDY    27  21  78 S3        30.30R
APPLETON       PTCLDY    27  18  69 VRB5      30.29R
OSHKOSH        CLOUDY    27  18  69 W3        30.30S
FOND DU LAC    CLOUDY    28  19  69 W3        30.30S
$$

WIZ022-050-052-200100-
EAST CENTRAL WISCONSIN

CITY           SKY/WX    TMP DP  RH WIND       PRES   REMARKS
STURGEON BAY   CLEAR     23  18  80 CALM      30.31R
MANITOWOC      NOT AVBL
SHEBOYGAN      CLOUDY    29  21  72 CALM      30.30R
$$

LMZ563-521-522-541>543-200100-
LAKESHORE

STATION/POSITION TIME  TEMP    WIND        PRES    VSBY  WAVE
                       AIR SEA DIR/SP/G                  HT/PER
                 (UTC) (F)     (DEG/KT/KT) (MB)    (MI)  (FT/S)
SHEBOYGAN LKSHOR 2300   31 33  290/  3/  4 1027.1R
KEWAUNEE LKSHORE 2300   28      CALM  /  2 1025.2R
ALGOMA MARINA    2300             CALM       N/A
NORTHPORT PIER   2300   27      CALM  /  2 1025.7S
CHAMBERS ISLAND  2300   21        CALM     1026.1R
MENOMINEE LKSHOR 2300   27     170/  3/  4 1026.3R
$$



USA.gov is the U.S. government's official web portal to all federal, state and local government web resources and services.